Location: El Chorro
(10.0985°N, 67.3542°W)
Time: 19:00:14
(UTC+00:00)

Meteor 2-1 Rocket - Pass Details

Date: 15 November 2025
Orbit: 822 x 911 km, 81.3° (Epoch: 06 December)

Event Time Altitude Azimuth Distance (km) Brightness Sun altitude
Rises 23:00:43 0° 183° (S) 3,439 7.6 -14.2°
Reaches altitude 10° 23:03:07 10° 182° (S) 2,515 6.9 -14.7°
Maximum altitude 23:08:52 84° 94° (E) 895 4.2 -16.1°
Drops below altitude 10° 23:14:44 10° 7° (N) 2,568 6.5 -17.5°
Sets 23:17:12 0° 7° (N) 3,517 7.2 -18.0°
